| time (UTC) | temp F | wind direction | speed knots | gust knots | rain 1hr in | rain 24hr in | rain mn in | humidity % | barometer mb |
| 20260906080021 | 88 | 142 | 2.6 | 6.1 | 0.00 | 0.00 | 0.00 | 43 | 1020.3 |
| 20260906075521 | 88 | 122 | 2.6 | 4.3 | 0.00 | 0.00 | 0.00 | 44 | 1020.1 |
| 20260906075122 | 88 | 122 | 2.6 | 4.3 | 0.00 | 0.00 | 0.00 | 44 | 1020.1 |
| 20260906074520 | 88 | 138 | 1.7 | 5.2 | 0.00 | 0.00 | 0.00 | 43 | 1020.2 |
| 20260906074039 | 88 | 136 | 2.6 | 4.3 | 0.00 | 0.00 | 0.00 | 43 | 1020.1 |
| 20260906074020 | 87 | 147 | 1.7 | 5.2 | 0.00 | 0.00 | 0.00 | 43 | 1020.1 |
| 20260906073518 | 87 | 147 | 1.7 | 5.2 | 0.00 | 0.00 | 0.00 | 43 | 1020.1 |
| 20260906073022 | 87 | 150 | 2.6 | 5.2 | 0.00 | 0.00 | 0.00 | 43 | 1020.0 |
| 20260906072517 | 87 | 113 | 0.9 | 3.5 | 0.00 | 0.00 | 0.00 | 44 | 1020.0 |
| 20260906072017 | 87 | 129 | 0.9 | 2.6 | 0.00 | 0.00 | 0.00 | 45 | 1019.9 |
| 20260906071604 | 86 | 145 | 1.7 | 5.2 | 0.00 | 0.00 | 0.00 | 44 | 1019.9 |
| 20260906071020 | 86 | 138 | 1.7 | 5.2 | 0.00 | 0.00 | 0.00 | 43 | 1019.8 |
| 20260906071016 | 86 | 136 | 1.7 | 5.2 | 0.00 | 0.00 | 0.00 | 43 | 1019.9 |
| 20260906070539 | 86 | 138 | 1.7 | 5.2 | 0.00 | 0.00 | 0.00 | 43 | 1019.8 |
| 20260906070021 | 86 | 147 | 1.7 | 4.3 | 0.00 | 0.00 | 0.00 | 44 | 1019.7 |
| 20260906065520 | 86 | 102 | 0.9 | 2.6 | 0.00 | 0.00 | 0.00 | 45 | 1019.7 |
| 20260906065020 | 85 | 64 | 0.9 | 1.7 | 0.00 | 0.00 | 0.00 | 46 | 1019.5 |
| 20260906064541 | 85 | 45 | 0.9 | 3.5 | 0.00 | 0.00 | 0.00 | 46 | 1019.5 |
| 20260906064022 | 85 | 40 | 0.9 | 3.5 | 0.00 | 0.00 | 0.00 | 46 | 1019.5 |
| 20260906063540 | 85 | 61 | 0.9 | 1.7 | 0.00 | 0.00 | 0.00 | 47 | 1019.4 |
| 20260906063021 | 85 | 23 | 0.0 | 1.7 | 0.00 | 0.00 | 0.00 | 48 | 1019.3 |
| 20260906063017 | 85 | 23 | 0.0 | 1.7 | 0.00 | 0.00 | 0.00 | 48 | 1019.3 |
| 20260906062515 | 84 | 0 | 0.0 | 0.9 | 0.00 | 0.00 | 0.00 | 49 | 1019.2 |
| 20260906062026 | 84 | 0 | 0.0 | 0.9 | 0.00 | 0.00 | 0.00 | 49 | 1019.1 |
| 20260906061515 | 84 | 0 | 0.0 | 1.7 | 0.00 | 0.00 | 0.00 | 50 | 1019.1 |
| 20260906061022 | 84 | 0 | 0.0 | 2.6 | 0.00 | 0.00 | 0.00 | 50 | 1019.0 |
| 20260906060518 | 84 | 0 | 0.9 | 2.6 | 0.00 | 0.00 | 0.00 | 50 | 1019.0 |
| 20260906060018 | 83 | 0 | 0.0 | 2.6 | 0.00 | 0.00 | 0.00 | 50 | 1018.9 |
| 20260906055515 | 83 | 0.0 | 0.0 | 0.00 | 0.00 | 0.00 | 49 | 1018.8 | |
| 20260906055059 | 82 | 338 | 0.0 | 1.7 | 0.00 | 0.00 | 0.00 | 49 | 1018.7 |
| 20260906054521 | 82 | 338 | 0.0 | 0.9 | 0.00 | 0.00 | 0.00 | 49 | 1018.6 |
| 20260906054023 | 81 | 338 | 0.0 | 1.7 | 0.00 | 0.00 | 0.00 | 50 | 1018.5 |
| 20260906053521 | 80 | 0.0 | 0.0 | 0.00 | 0.00 | 0.00 | 51 | 1018.4 | |
| 20260906053021 | 79 | 338 | 0.9 | 2.6 | 0.00 | 0.00 | 0.00 | 51 | 1018.4 |
| 20260906052515 | 78 | 335 | 1.7 | 3.5 | 0.00 | 0.00 | 0.00 | 51 | 1018.4 |
| 20260906052020 | 78 | 315 | 0.9 | 3.5 | 0.00 | 0.00 | 0.00 | 50 | 1018.3 |
| 20260906051522 | 78 | 308 | 1.7 | 2.6 | 0.00 | 0.00 | 0.00 | 50 | 1018.3 |
| 20260906051021 | 78 | 293 | 0.9 | 1.7 | 0.00 | 0.00 | 0.00 | 52 | 1018.3 |
| 20260906050535 | 78 | 289 | 0.9 | 1.7 | 0.00 | 0.00 | 0.00 | 50 | 1018.3 |
| 20260906050025 | 78 | 0.0 | 0.0 | 0.00 | 0.00 | 0.00 | 47 | 1018.3 | |
| 20260906045524 | 78 | 282 | 0.9 | 1.7 | 0.00 | 0.00 | 0.00 | 46 | 1018.3 |
| 20260906045020 | 78 | 0.0 | 0.0 | 0.00 | 0.00 | 0.00 | 46 | 1018.2 | |
| 20260906044515 | 78 | 0.0 | 0.0 | 0.00 | 0.00 | 0.00 | 45 | 1018.1 | |
| 20260906044016 | 78 | 0.0 | 0.0 | 0.00 | 0.00 | 0.00 | 46 | 1018.0 | |
| 20260906043518 | 78 | 285 | 0.9 | 3.5 | 0.00 | 0.00 | 0.00 | 46 | 1018.1 |
| 20260906043024 | 78 | 0.0 | 0.0 | 0.00 | 0.00 | 0.00 | 47 | 1018.1 | |
| 20260906042521 | 78 | 0.0 | 0.0 | 0.00 | 0.00 | 0.00 | 47 | 1018.2 | |
| 20260906042021 | 77 | 293 | 0.0 | 1.7 | 0.00 | 0.00 | 0.00 | 47 | 1018.1 |
| 20260906041523 | 77 | 293 | 0.0 | 1.7 | 0.00 | 0.00 | 0.00 | 47 | 1018.1 |
| 20260906041015 | 78 | 293 | 0.0 | 1.7 | 0.00 | 0.00 | 0.00 | 49 | 1017.9 |
| 20260906040517 | 78 | 0.0 | 0.0 | 0.00 | 0.00 | 0.00 | 49 | 1018.0 | |
| 20260906040016 | 78 | 0.0 | 0.0 | 0.00 | 0.00 | 0.00 | 49 | 1018.2 | |
| 20260906035525 | 78 | 0.0 | 0.0 | 0.00 | 0.00 | 0.00 | 50 | 1018.2 | |
| 20260906035025 | 78 | 293 | 0.0 | 2.6 | 0.00 | 0.00 | 0.00 | 49 | 1018.1 |
| 20260906034540 | 78 | 297 | 1.7 | 4.3 | 0.00 | 0.00 | 0.00 | 50 | 1018.1 |
| 20260906034036 | 78 | 293 | 0.9 | 1.7 | 0.00 | 0.00 | 0.00 | 50 | 1018.0 |
| 20260906033544 | 78 | 293 | 0.9 | 2.6 | 0.00 | 0.00 | 0.00 | 51 | 1018.0 |
| 20260906033020 | 78 | 0.0 | 0.0 | 0.00 | 0.00 | 0.00 | 50 | 1018.0 | |
| 20260906032516 | 78 | 296 | 0.9 | 3.5 | 0.00 | 0.00 | 0.00 | 50 | 1018.0 |
| 20260906032024 | 78 | 293 | 0.9 | 2.6 | 0.00 | 0.00 | 0.00 | 50 | 1017.9 |
| 20260906031518 | 78 | 293 | 0.9 | 2.6 | 0.00 | 0.00 | 0.00 | 51 | 1018.0 |
| 20260906031022 | 78 | 0.0 | 0.0 | 0.00 | 0.00 | 0.00 | 51 | 1018.0 | |
| 20260906030524 | 78 | 293 | 0.9 | 2.6 | 0.00 | 0.00 | 0.00 | 51 | 1017.9 |
| 20260906030144 | 78 | 293 | 0.9 | 2.6 | 0.00 | 0.00 | 0.00 | 49 | 1018.0 |
| 20260906025520 | 78 | 290 | 0.9 | 3.5 | 0.00 | 0.00 | 0.00 | 47 | 1018.1 |
| 20260906025016 | 78 | 0.0 | 0.0 | 0.00 | 0.00 | 0.00 | 47 | 1018.1 | |
| 20260906024521 | 78 | 0.0 | 0.0 | 0.00 | 0.00 | 0.00 | 46 | 1018.1 | |
| 20260906024045 | 78 | 0.0 | 0.0 | 0.00 | 0.00 | 0.00 | 46 | 1018.1 | |
| 20260906023523 | 78 | 0.0 | 0.0 | 0.00 | 0.00 | 0.00 | 46 | 1018.2 | |
| 20260906023040 | 78 | 0.0 | 0.0 | 0.00 | 0.00 | 0.00 | 45 | 1018.1 | |
| 20260906022543 | 79 | 293 | 0.0 | 1.7 | 0.00 | 0.00 | 0.00 | 44 | 1018.2 |
| 20260906022017 | 78 | 293 | 0.0 | 1.7 | 0.00 | 0.00 | 0.00 | 43 | 1018.2 |
| 20260906021519 | 78 | 293 | 0.9 | 2.6 | 0.00 | 0.00 | 0.00 | 44 | 1018.2 |
| 20260906021027 | 79 | 293 | 0.9 | 1.7 | 0.00 | 0.00 | 0.00 | 44 | 1018.2 |
| 20260906020520 | 79 | 293 | 0.0 | 2.6 | 0.00 | 0.00 | 0.00 | 44 | 1018.1 |
| 20260906020135 | 79 | 0.0 | 0.0 | 0.00 | 0.00 | 0.00 | 44 | 1018.2 | |
| 20260906015539 | 79 | 293 | 0.0 | 1.7 | 0.00 | 0.00 | 0.00 | 44 | 1018.2 |
| 20260906015015 | 78 | 0.0 | 0.0 | 0.00 | 0.00 | 0.00 | 45 | 1018.1 | |
| 20260906014542 | 78 | 293 | 0.0 | 0.9 | 0.00 | 0.00 | 0.00 | 46 | 1018.0 |
| 20260906014020 | 78 | 0.0 | 0.0 | 0.00 | 0.00 | 0.00 | 48 | 1018.2 | |
| 20260906013605 | 79 | 293 | 0.0 | 0.9 | 0.00 | 0.00 | 0.00 | 48 | 1018.3 |
| 20260906012519 | 79 | 0.0 | 0.0 | 0.00 | 0.00 | 0.00 | 48 | 1018.3 | |
| 20260906012016 | 79 | 293 | 0.9 | 2.6 | 0.00 | 0.00 | 0.00 | 49 | 1018.3 |
| 20260906011519 | 79 | 293 | 0.9 | 2.6 | 0.00 | 0.00 | 0.00 | 49 | 1018.2 |
| 20260906011020 | 79 | 299 | 0.9 | 2.6 | 0.00 | 0.00 | 0.00 | 49 | 1018.3 |
| 20260906010522 | 79 | 0.0 | 0.0 | 0.00 | 0.00 | 0.00 | 49 | 1018.3 | |
| 20260906010138 | 78 | 293 | 0.9 | 2.6 | 0.00 | 0.00 | 0.00 | 49 | 1018.3 |
| 20260906005539 | 78 | 293 | 0.9 | 1.7 | 0.00 | 0.00 | 0.00 | 51 | 1018.3 |
| 20260906005018 | 78 | 0.0 | 0.0 | 0.00 | 0.00 | 0.00 | 51 | 1018.2 | |
| 20260906004522 | 78 | 293 | 0.9 | 1.7 | 0.00 | 0.00 | 0.00 | 52 | 1018.2 |
| 20260906004024 | 78 | 293 | 0.0 | 1.7 | 0.00 | 0.00 | 0.00 | 53 | 1018.2 |
| 20260906003541 | 78 | 0.0 | 0.0 | 0.00 | 0.00 | 0.00 | 53 | 1018.3 | |
| 20260906003038 | 78 | 303 | 0.0 | 2.6 | 0.00 | 0.00 | 0.00 | 52 | 1018.3 |
| 20260906002521 | 78 | 325 | 1.7 | 2.6 | 0.00 | 0.00 | 0.00 | 53 | 1018.3 |
| 20260906002026 | 78 | 338 | 0.0 | 2.6 | 0.00 | 0.00 | 0.00 | 55 | 1018.3 |
| 20260906001541 | 78 | 0 | 0.0 | 0.9 | 0.00 | 0.00 | 0.00 | 56 | 1018.3 |
| 20260906001015 | 78 | 0 | 0.0 | 1.7 | 0.00 | 0.00 | 0.00 | 56 | 1018.4 |
| 20260906000604 | 78 | 322 | 2.6 | 5.2 | 0.00 | 0.00 | 0.00 | 56 | 1018.4 |
| 20260906000137 | 78 | 293 | 0.9 | 3.5 | 0.00 | 0.00 | 0.00 | 56 | 1018.4 |
| 20260905235516 | 78 | 303 | 0.9 | 2.6 | 0.00 | 0.00 | 0.00 | 58 | 1018.5 |
| 20260905235016 | 78 | 315 | 0.0 | 1.7 | 0.00 | 0.00 | 0.00 | 58 | 1018.5 |
| 20260905234519 | 78 | 0 | 0.0 | 1.7 | 0.00 | 0.00 | 0.00 | 59 | 1018.6 |
| 20260905234041 | 77 | 301 | 0.9 | 3.5 | 0.00 | 0.00 | 0.00 | 61 | 1018.5 |
| 20260905233521 | 77 | 299 | 0.9 | 3.5 | 0.00 | 0.00 | 0.00 | 63 | 1018.5 |
| 20260905233021 | 77 | 0.0 | 0.0 | 0.00 | 0.00 | 0.00 | 64 | 1018.5 | |
| 20260905232523 | 77 | 293 | 0.0 | 1.7 | 0.00 | 0.00 | 0.00 | 65 | 1018.7 |
| 20260905232022 | 77 | 0.0 | 0.0 | 0.00 | 0.00 | 0.00 | 65 | 1018.7 | |
| 20260905231525 | 77 | 300 | 0.9 | 2.6 | 0.00 | 0.00 | 0.00 | 65 | 1018.7 |
| 20260905231025 | 78 | 0.0 | 0.0 | 0.00 | 0.00 | 0.00 | 64 | 1018.7 | |
| 20260905230515 | 78 | 23 | 0.0 | 0.9 | 0.00 | 0.00 | 0.00 | 63 | 1018.6 |
| 20260905230018 | 78 | 91 | 0.0 | 1.7 | 0.00 | 0.00 | 0.00 | 63 | 1018.6 |
| 20260905225517 | 78 | 170 | 1.7 | 4.3 | 0.00 | 0.00 | 0.00 | 62 | 1018.6 |
| 20260905225020 | 78 | 329 | 0.9 | 2.6 | 0.00 | 0.00 | 0.00 | 63 | 1018.7 |
| 20260905224520 | 78 | 293 | 0.9 | 3.5 | 0.00 | 0.00 | 0.00 | 63 | 1018.8 |
| 20260905224019 | 78 | 324 | 0.9 | 4.3 | 0.00 | 0.00 | 0.00 | 65 | 1019.0 |
| 20260905223515 | 77 | 279 | 0.9 | 2.6 | 0.00 | 0.00 | 0.00 | 67 | 1019.0 |
| 20260905223017 | 77 | 338 | 0.9 | 2.6 | 0.00 | 0.00 | 0.00 | 69 | 1019.0 |
| 20260905222521 | 77 | 0.0 | 0.0 | 0.00 | 0.00 | 0.00 | 69 | 1019.0 | |
| 20260905222021 | 77 | 310 | 0.9 | 3.5 | 0.00 | 0.00 | 0.00 | 70 | 1018.9 |
| 20260905221522 | 77 | 302 | 1.7 | 3.5 | 0.00 | 0.00 | 0.00 | 70 | 1018.9 |
| 20260905221021 | 77 | 293 | 0.9 | 2.6 | 0.00 | 0.00 | 0.00 | 70 | 1018.9 |
| 20260905220520 | 77 | 0.0 | 0.0 | 0.00 | 0.00 | 0.00 | 70 | 1018.8 | |
| 20260905220022 | 77 | 315 | 0.9 | 2.6 | 0.00 | 0.00 | 0.00 | 70 | 1018.8 |
| 20260905215521 | 77 | 0.0 | 0.0 | 0.00 | 0.00 | 0.00 | 70 | 1019.0 | |
| 20260905215021 | 77 | 315 | 0.0 | 1.7 | 0.00 | 0.00 | 0.00 | 70 | 1019.0 |
| 20260905214525 | 77 | 0.0 | 0.0 | 0.00 | 0.00 | 0.00 | 70 | 1019.0 | |
| 20260905214024 | 77 | 0.0 | 0.0 | 0.00 | 0.00 | 0.00 | 71 | 1019.0 | |
| 20260905213516 | 77 | 0.0 | 0.0 | 0.00 | 0.00 | 0.00 | 71 | 1018.9 | |
| 20260905213017 | 77 | 0.0 | 0.0 | 0.00 | 0.00 | 0.00 | 71 | 1019.0 | |
| 20260905212519 | 77 | 338 | 0.0 | 1.7 | 0.00 | 0.00 | 0.00 | 71 | 1019.0 |
| 20260905212017 | 77 | 338 | 0.9 | 3.5 | 0.00 | 0.00 | 0.00 | 71 | 1018.9 |
| 20260905211524 | 77 | 323 | 0.9 | 3.5 | 0.00 | 0.00 | 0.00 | 71 | 1019.1 |
| 20260905211057 | 77 | 342 | 0.9 | 5.2 | 0.00 | 0.00 | 0.00 | 71 | 1019.0 |
| 20260905210520 | 77 | 345 | 1.7 | 5.2 | 0.00 | 0.00 | 0.00 | 70 | 1019.1 |
| 20260905210020 | 77 | 0 | 0.0 | 1.7 | 0.00 | 0.00 | 0.00 | 70 | 1019.1 |
| 20260905205520 | 77 | 334 | 0.9 | 3.5 | 0.00 | 0.00 | 0.00 | 70 | 1019.0 |
| 20260905205017 | 77 | 0.0 | 0.0 | 0.00 | 0.00 | 0.00 | 70 | 1019.0 | |
| 20260905204522 | 77 | 152 | 0.0 | 2.6 | 0.00 | 0.00 | 0.00 | 71 | 1019.1 |
| 20260905204020 | 77 | 0.0 | 0.0 | 0.00 | 0.00 | 0.00 | 71 | 1019.1 | |
| 20260905203524 | 77 | 137 | 0.9 | 3.5 | 0.00 | 0.00 | 0.00 | 71 | 1019.0 |
| 20260905203017 | 77 | 84 | 0.0 | 1.7 | 0.00 | 0.00 | 0.00 | 70 | 1019.1 |
| 20260905202523 | 77 | 134 | 0.9 | 2.6 | 0.00 | 0.00 | 0.00 | 70 | 1019.0 |
| 20260905202022 | 78 | 144 | 0.9 | 3.5 | 0.00 | 0.00 | 0.00 | 69 | 1019.1 |
| 20260905201520 | 78 | 322 | 0.9 | 3.5 | 0.00 | 0.00 | 0.00 | 69 | 1019.2 |
| 20260905201042 | 78 | 316 | 0.9 | 3.5 | 0.00 | 0.00 | 0.00 | 69 | 1019.1 |
| 20260905200541 | 78 | 293 | 0.0 | 1.7 | 0.00 | 0.00 | 0.00 | 68 | 1019.2 |
| 20260905200020 | 78 | 319 | 1.7 | 4.3 | 0.00 | 0.00 | 0.00 | 68 | 1019.3 |
| 20260905195517 | 78 | 0.0 | 0.0 | 0.00 | 0.00 | 0.00 | 67 | 1019.2 | |
| 20260905195025 | 78 | 0.0 | 0.0 | 0.00 | 0.00 | 0.00 | 67 | 1019.2 | |
| 20260905194540 | 78 | 293 | 0.9 | 3.5 | 0.00 | 0.00 | 0.00 | 67 | 1019.2 |
| 20260905194016 | 78 | 305 | 2.6 | 3.5 | 0.00 | 0.00 | 0.00 | 66 | 1019.2 |
| 20260905193518 | 78 | 285 | 1.7 | 3.5 | 0.00 | 0.00 | 0.00 | 66 | 1019.1 |
| 20260905193022 | 78 | 158 | 0.0 | 0.9 | 0.00 | 0.00 | 0.00 | 66 | 1019.0 |
| 20260905192521 | 78 | 158 | 0.0 | 1.7 | 0.00 | 0.00 | 0.00 | 66 | 1019.1 |
| 20260905192022 | 78 | 331 | 0.9 | 2.6 | 0.00 | 0.00 | 0.00 | 65 | 1019.0 |
| 20260905191520 | 78 | 296 | 3.5 | 99.1 | 0.00 | 0.00 | 0.00 | 65 | 1019.1 |
| 20260905191040 | 78 | 307 | 0.9 | 5.2 | 0.00 | 0.00 | 0.00 | 64 | 1019.0 |
| 20260905190523 | 78 | 338 | 0.0 | 1.7 | 0.00 | 0.00 | 0.00 | 64 | 1019.0 |
| 20260905190023 | 78 | 338 | 0.9 | 3.5 | 0.00 | 0.00 | 0.00 | 64 | 1018.9 |
| 20260905185519 | 78 | 317 | 1.7 | 3.5 | 0.00 | 0.00 | 0.00 | 64 | 1018.9 |
| 20260905185019 | 79 | 346 | 0.9 | 2.6 | 0.00 | 0.00 | 0.00 | 64 | 1018.8 |
| 20260905184525 | 79 | 0 | 0.0 | 1.7 | 0.00 | 0.00 | 0.00 | 64 | 1018.8 |
| 20260905184015 | 79 | 0 | 0.0 | 0.9 | 0.00 | 0.00 | 0.00 | 63 | 1018.7 |
| 20260905183519 | 79 | 0 | 0.0 | 0.9 | 0.00 | 0.00 | 0.00 | 63 | 1018.9 |
| 20260905183024 | 79 | 0.0 | 0.0 | 0.00 | 0.00 | 0.00 | 63 | 1018.8 | |
| 20260905182516 | 79 | 0 | 0.9 | 5.2 | 0.00 | 0.00 | 0.00 | 63 | 1018.7 |
| 20260905182019 | 79 | 352 | 2.6 | 4.3 | 0.00 | 0.00 | 0.00 | 63 | 1018.7 |
| 20260905181523 | 79 | 1 | 0.9 | 4.3 | 0.00 | 0.00 | 0.00 | 63 | 1018.6 |
| 20260905181019 | 80 | 23 | 0.0 | 2.6 | 0.00 | 0.00 | 0.00 | 62 | 1018.7 |
| 20260905180516 | 80 | 345 | 1.7 | 4.3 | 0.00 | 0.00 | 0.00 | 62 | 1018.7 |
| 20260905180036 | 80 | 325 | 0.9 | 5.2 | 0.00 | 0.00 | 0.00 | 62 | 1018.7 |
| 20260905175521 | 80 | 48 | 0.9 | 4.3 | 0.00 | 0.00 | 0.00 | 63 | 1018.6 |
| 20260905175050 | 80 | 93 | 0.9 | 3.5 | 0.00 | 0.00 | 0.00 | 63 | 1018.6 |
| 20260905174544 | 80 | 80 | 0.9 | 3.5 | 0.00 | 0.00 | 0.00 | 62 | 1018.6 |
| 20260905174021 | 80 | 125 | 0.9 | 4.3 | 0.00 | 0.00 | 0.00 | 62 | 1018.7 |
| 20260905173518 | 80 | 23 | 0.0 | 1.7 | 0.00 | 0.00 | 0.00 | 61 | 1018.6 |
| 20260905173020 | 81 | 33 | 0.9 | 2.6 | 0.00 | 0.00 | 0.00 | 59 | 1018.6 |
| 20260905173017 | 80 | 124 | 1.7 | 5.2 | 0.00 | 0.00 | 0.00 | 61 | 1018.6 |
| 20260905172517 | 81 | 33 | 0.9 | 2.6 | 0.00 | 0.00 | 0.00 | 59 | 1018.6 |
| 20260905172022 | 81 | 0 | 0.0 | 2.6 | 0.00 | 0.00 | 0.00 | 58 | 1018.5 |
| 20260905171515 | 81 | 340 | 0.9 | 4.3 | 0.00 | 0.00 | 0.00 | 57 | 1018.6 |
| 20260905171024 | 81 | 180 | 0.9 | 2.6 | 0.00 | 0.00 | 0.00 | 56 | 1018.7 |
| 20260905171021 | 82 | 176 | 0.0 | 2.6 | 0.00 | 0.00 | 0.00 | 56 | 1018.6 |
| 20260905170535 | 82 | 176 | 0.0 | 2.6 | 0.00 | 0.00 | 0.00 | 56 | 1018.6 |
| 20260905170521 | 82 | 176 | 0.0 | 2.6 | 0.00 | 0.00 | 0.00 | 56 | 1018.6 |
| 20260905170020 | 82 | 135 | 0.0 | 1.7 | 0.00 | 0.00 | 0.00 | 55 | 1018.6 |
| 20260905170016 | 82 | 135 | 0.0 | 1.7 | 0.00 | 0.00 | 0.00 | 55 | 1018.6 |
| 20260905165521 | 82 | 237 | 0.9 | 3.5 | 0.00 | 0.00 | 0.00 | 53 | 1018.5 |
| 20260905165517 | 82 | 136 | 1.7 | 4.3 | 0.00 | 0.00 | 0.00 | 54 | 1018.5 |
| 20260905165024 | 82 | 237 | 0.9 | 3.5 | 0.00 | 0.00 | 0.00 | 53 | 1018.5 |
| 20260905164537 | 83 | 123 | 0.0 | 1.7 | 0.00 | 0.00 | 0.00 | 52 | 1018.5 |
| 20260905164020 | 83 | 150 | 0.0 | 2.6 | 0.00 | 0.00 | 0.00 | 51 | 1018.6 |
| 20260905163525 | 83 | 167 | 0.9 | 3.5 | 0.00 | 0.00 | 0.00 | 50 | 1018.6 |
| 20260905163520 | 83 | 125 | 0.9 | 3.5 | 0.00 | 0.00 | 0.00 | 49 | 1018.5 |
| 20260905163101 | 83 | 125 | 0.9 | 3.5 | 0.00 | 0.00 | 0.00 | 49 | 1018.5 |
| 20260905162520 | 84 | 319 | 0.9 | 3.5 | 0.00 | 0.00 | 0.00 | 49 | 1018.4 |
| 20260905162518 | 83 | 338 | 0.0 | 2.6 | 0.00 | 0.00 | 0.00 | 49 | 1018.5 |
| 20260905162020 | 84 | 319 | 0.9 | 3.5 | 0.00 | 0.00 | 0.00 | 49 | 1018.4 |
| 20260905162016 | 84 | 319 | 0.9 | 3.5 | 0.00 | 0.00 | 0.00 | 49 | 1018.4 |
| 20260905161517 | 84 | 295 | 1.7 | 5.2 | 0.00 | 0.00 | 0.00 | 48 | 1018.4 |
| 20260905161035 | 84 | 30 | 1.7 | 5.2 | 0.00 | 0.00 | 0.00 | 49 | 1018.5 |
| 20260905160524 | 84 | 210 | 1.7 | 5.2 | 0.00 | 0.00 | 0.00 | 49 | 1018.7 |
| 20260905160521 | 84 | 158 | 0.9 | 4.3 | 0.00 | 0.00 | 0.00 | 49 | 1018.6 |
| 20260905160041 | 84 | 158 | 0.9 | 4.3 | 0.00 | 0.00 | 0.00 | 49 | 1018.6 |
| 20260905155515 | 84 | 354 | 1.7 | 4.3 | 0.00 | 0.00 | 0.00 | 49 | 1018.6 |
| 20260905155019 | 85 | 337 | 2.6 | 5.2 | 0.00 | 0.00 | 0.00 | 49 | 1018.5 |
| 20260905154522 | 85 | 306 | 1.7 | 5.2 | 0.00 | 0.00 | 0.00 | 48 | 1018.6 |
| 20260905154021 | 85 | 69 | 0.0 | 1.7 | 0.00 | 0.00 | 0.00 | 47 | 1018.5 |
| 20260905153521 | 85 | 239 | 0.9 | 6.1 | 0.00 | 0.00 | 0.00 | 45 | 1018.8 |
| 20260905153025 | 85 | 239 | 0.9 | 6.1 | 0.00 | 0.00 | 0.00 | 45 | 1018.8 |
| 20260905153020 | 85 | 299 | 2.6 | 6.1 | 0.00 | 0.00 | 0.00 | 45 | 1018.7 |
| 20260905152520 | 85 | 47 | 1.7 | 5.2 | 0.00 | 0.00 | 0.00 | 44 | 1018.7 |
| 20260905152022 | 86 | 359 | 2.6 | 5.2 | 0.00 | 0.00 | 0.00 | 43 | 1018.7 |
| 20260905152020 | 85 | 47 | 1.7 | 5.2 | 0.00 | 0.00 | 0.00 | 44 | 1018.7 |
| 20260905151527 | 86 | 359 | 2.6 | 5.2 | 0.00 | 0.00 | 0.00 | 43 | 1018.7 |
| 20260905151520 | 86 | 343 | 0.9 | 4.3 | 0.00 | 0.00 | 0.00 | 43 | 1018.6 |
| 20260905151046 | 86 | 343 | 0.9 | 4.3 | 0.00 | 0.00 | 0.00 | 43 | 1018.6 |
| 20260905150538 | 86 | 339 | 1.7 | 6.1 | 0.00 | 0.00 | 0.00 | 43 | 1018.6 |
| 20260905150045 | 86 | 336 | 2.6 | 5.2 | 0.00 | 0.00 | 0.00 | 43 | 1018.6 |
| 20260905145519 | 86 | 2 | 3.5 | 7.0 | 0.00 | 0.00 | 0.00 | 42 | 1018.6 |
| 20260905145019 | 86 | 357 | 3.5 | 9.6 | 0.00 | 0.00 | 0.00 | 41 | 1018.6 |
| 20260905144523 | 86 | 348 | 2.6 | 7.0 | 0.00 | 0.00 | 0.00 | 41 | 1018.5 |
| 20260905144041 | 87 | 352 | 4.3 | 14.8 | 0.00 | 0.00 | 0.00 | 41 | 1018.5 |
| 20260905143516 | 87 | 357 | 2.6 | 6.1 | 0.00 | 0.00 | 0.00 | 39 | 1018.6 |
| 20260905143019 | 87 | 0 | 7.0 | 14.8 | 0.00 | 0.00 | 0.00 | 39 | 1018.7 |
| 20260905142522 | 87 | 342 | 3.5 | 9.6 | 0.00 | 0.00 | 0.00 | 41 | 1018.7 |
| 20260905142025 | 87 | 347 | 3.5 | 7.8 | 0.00 | 0.00 | 0.00 | 39 | 1018.8 |
| 20260905142021 | 87 | 103 | 1.7 | 7.0 | 0.00 | 0.00 | 0.00 | 39 | 1018.7 |
| 20260905141523 | 87 | 103 | 1.7 | 7.0 | 0.00 | 0.00 | 0.00 | 39 | 1018.7 |
| 20260905141021 | 87 | 58 | 1.7 | 6.1 | 0.00 | 0.00 | 0.00 | 39 | 1018.8 |
| 20260905140515 | 87 | 210 | 0.0 | 4.3 | 0.00 | 0.00 | 0.00 | 39 | 1018.8 |
| 20260905140020 | 87 | 318 | 3.5 | 6.1 | 0.00 | 0.00 | 0.00 | 38 | 1018.8 |
| 20260905135516 | 87 | 349 | 3.5 | 8.7 | 0.00 | 0.00 | 0.00 | 38 | 1018.7 |
| 20260905135020 | 88 | 355 | 2.6 | 5.2 | 0.00 | 0.00 | 0.00 | 38 | 1018.7 |
| 20260905134516 | 88 | 274 | 0.9 | 3.5 | 0.00 | 0.00 | 0.00 | 37 | 1018.7 |
| 20260905134018 | 88 | 310 | 2.6 | 6.1 | 0.00 | 0.00 | 0.00 | 37 | 1018.7 |
| 20260905133526 | 88 | 342 | 4.3 | 7.0 | 0.00 | 0.00 | 0.00 | 36 | 1018.8 |
| 20260905133015 | 88 | 328 | 5.2 | 8.7 | 0.00 | 0.00 | 0.00 | 36 | 1018.9 |
| 20260905132524 | 88 | 338 | 5.2 | 7.8 | 0.00 | 0.00 | 0.00 | 36 | 1018.9 |
| 20260905132025 | 88 | 345 | 1.7 | 8.7 | 0.00 | 0.00 | 0.00 | 37 | 1019.0 |
| 20260905131520 | 88 | 317 | 0.9 | 5.2 | 0.00 | 0.00 | 0.00 | 37 | 1019.0 |
| 20260905131026 | 88 | 343 | 1.7 | 5.2 | 0.00 | 0.00 | 0.00 | 36 | 1019.0 |
| 20260905130520 | 88 | 8 | 1.7 | 5.2 | 0.00 | 0.00 | 0.00 | 37 | 1019.1 |
| 20260905130022 | 89 | 276 | 3.5 | 7.8 | 0.00 | 0.00 | 0.00 | 37 | 1019.1 |
| 20260905125523 | 89 | 12 | 1.7 | 5.2 | 0.00 | 0.00 | 0.00 | 38 | 1019.0 |
| 20260905125022 | 89 | 317 | 2.6 | 7.0 | 0.00 | 0.00 | 0.00 | 37 | 1019.2 |
| 20260905124521 | 89 | 347 | 2.6 | 7.0 | 0.00 | 0.00 | 0.00 | 40 | 1019.1 |
| 20260905124036 | 89 | 347 | 2.6 | 7.0 | 0.00 | 0.00 | 0.00 | 40 | 1019.1 |
| 20260905123542 | 89 | 3 | 0.9 | 6.1 | 0.00 | 0.00 | 0.00 | 40 | 1019.3 |
| 20260905123021 | 90 | 326 | 1.7 | 4.3 | 0.00 | 0.00 | 0.00 | 39 | 1019.2 |
| 20260905122517 | 90 | 326 | 1.7 | 4.3 | 0.00 | 0.00 | 0.00 | 39 | 1019.2 |
| 20260905122045 | 90 | 76 | 1.7 | 5.2 | 0.00 | 0.00 | 0.00 | 41 | 1019.2 |
| 20260905122020 | 90 | 68 | 1.7 | 3.5 | 0.00 | 0.00 | 0.00 | 41 | 1019.3 |
| 20260905121518 | 90 | 68 | 1.7 | 3.5 | 0.00 | 0.00 | 0.00 | 41 | 1019.3 |
| 20260905121015 | 90 | 82 | 2.6 | 5.2 | 0.00 | 0.00 | 0.00 | 41 | 1019.3 |
| 20260905120521 | 90 | 18 | 3.5 | 9.6 | 0.00 | 0.00 | 0.00 | 40 | 1019.4 |
| 20260905120122 | 91 | 351 | 3.5 | 7.0 | 0.00 | 0.00 | 0.00 | 39 | 1019.3 |
| 20260905115515 | 91 | 44 | 1.7 | 5.2 | 0.00 | 0.00 | 0.00 | 37 | 1019.3 |
| 20260905115022 | 91 | 101 | 1.7 | 6.1 | 0.00 | 0.00 | 0.00 | 38 | 1019.4 |
| 20260905114600 | 91 | 22 | 2.6 | 9.6 | 0.00 | 0.00 | 0.00 | 39 | 1019.5 |
| 20260905114039 | 91 | 72 | 2.6 | 6.1 | 0.00 | 0.00 | 0.00 | 38 | 1019.5 |
| 20260905113518 | 91 | 14 | 3.5 | 6.1 | 0.00 | 0.00 | 0.00 | 36 | 1019.5 |
| 20260905113015 | 91 | 347 | 1.7 | 7.0 | 0.00 | 0.00 | 0.00 | 37 | 1019.6 |
| 20260905112546 | 91 | 16 | 2.6 | 8.7 | 0.00 | 0.00 | 0.00 | 39 | 1019.5 |
| 20260905112022 | 91 | 127 | 2.6 | 4.3 | 0.00 | 0.00 | 0.00 | 39 | 1019.5 |
| 20260905111517 | 91 | 22 | 2.6 | 5.2 | 0.00 | 0.00 | 0.00 | 37 | 1019.5 |
| 20260905111026 | 91 | 358 | 3.5 | 9.6 | 0.00 | 0.00 | 0.00 | 37 | 1019.6 |
| 20260905110519 | 90 | 350 | 2.6 | 7.0 | 0.00 | 0.00 | 0.00 | 39 | 1019.6 |
| 20260905110028 | 90 | 42 | 1.7 | 6.1 | 0.00 | 0.00 | 0.00 | 39 | 1019.5 |
| 20260905105519 | 91 | 71 | 2.6 | 5.2 | 0.00 | 0.00 | 0.00 | 41 | 1019.5 |
| 20260905105022 | 90 | 36 | 1.7 | 5.2 | 0.00 | 0.00 | 0.00 | 41 | 1019.5 |
| 20260905104539 | 90 | 78 | 3.5 | 7.8 | 0.00 | 0.00 | 0.00 | 42 | 1019.4 |
| 20260905104042 | 89 | 29 | 2.6 | 6.1 | 0.00 | 0.00 | 0.00 | 44 | 1019.3 |
| 20260905103521 | 88 | 109 | 3.5 | 6.1 | 0.00 | 0.00 | 0.00 | 47 | 1019.4 |
| 20260905103024 | 88 | 55 | 3.5 | 7.8 | 0.00 | 0.00 | 0.00 | 54 | 1019.6 |
| 20260905102515 | 88 | 146 | 5.2 | 10.4 | 0.00 | 0.00 | 0.00 | 52 | 1019.5 |
| 20260905102023 | 88 | 125 | 3.5 | 7.8 | 0.00 | 0.00 | 0.00 | 54 | 1019.5 |
| 20260905101535 | 87 | 139 | 3.5 | 7.0 | 0.00 | 0.00 | 0.00 | 54 | 1019.7 |
| 20260905101025 | 87 | 130 | 4.3 | 7.0 | 0.00 | 0.00 | 0.00 | 55 | 1019.6 |
| 20260905100523 | 87 | 146 | 4.3 | 6.1 | 0.00 | 0.00 | 0.00 | 56 | 1019.6 |
| 20260905100059 | 87 | 134 | 5.2 | 7.8 | 0.00 | 0.00 | 0.00 | 56 | 1019.6 |
| 20260905095525 | 87 | 142 | 4.3 | 7.8 | 0.00 | 0.00 | 0.00 | 57 | 1019.6 |
| 20260905095022 | 86 | 151 | 4.3 | 8.7 | 0.00 | 0.00 | 0.00 | 59 | 1019.8 |
| 20260905094517 | 86 | 160 | 6.1 | 8.7 | 0.00 | 0.00 | 0.00 | 59 | 1019.8 |
| 20260905094018 | 86 | 127 | 4.3 | 7.8 | 0.00 | 0.00 | 0.00 | 59 | 1019.8 |
| 20260905093525 | 85 | 142 | 4.3 | 7.8 | 0.00 | 0.00 | 0.00 | 60 | 1019.8 |
| 20260905093023 | 85 | 140 | 4.3 | 7.8 | 0.00 | 0.00 | 0.00 | 60 | 1019.8 |
| 20260905092525 | 85 | 138 | 4.3 | 9.6 | 0.00 | 0.00 | 0.00 | 60 | 1019.8 |
| 20260905092045 | 85 | 132 | 6.1 | 10.4 | 0.00 | 0.00 | 0.00 | 60 | 1019.8 |
| 20260905091519 | 86 | 142 | 4.3 | 10.4 | 0.00 | 0.00 | 0.00 | 59 | 1019.9 |
| 20260905091024 | 86 | 74 | 1.7 | 6.1 | 0.00 | 0.00 | 0.00 | 58 | 1019.9 |
| 20260905090545 | 85 | 121 | 4.3 | 11.3 | 0.00 | 0.00 | 0.00 | 58 | 1020.0 |
| 20260905090017 | 85 | 74 | 2.6 | 5.2 | 0.00 | 0.00 | 0.00 | 59 | 1020.0 |
| 20260905085519 | 85 | 48 | 2.6 | 5.2 | 0.00 | 0.00 | 0.00 | 60 | 1020.2 |
| 20260905085021 | 85 | 26 | 3.5 | 7.0 | 0.00 | 0.00 | 0.00 | 59 | 1020.2 |
| 20260905084515 | 85 | 68 | 3.5 | 8.7 | 0.00 | 0.00 | 0.00 | 62 | 1020.1 |
| 20260905084016 | 85 | 130 | 4.3 | 8.7 | 0.00 | 0.00 | 0.00 | 61 | 1020.0 |
| 20260905083519 | 85 | 36 | 2.6 | 5.2 | 0.00 | 0.00 | 0.00 | 61 | 1019.9 |
| 20260905083016 | 85 | 127 | 4.3 | 9.6 | 0.00 | 0.00 | 0.00 | 61 | 1019.8 |
| 20260905082517 | 85 | 105 | 3.5 | 7.8 | 0.00 | 0.00 | 0.00 | 61 | 1019.8 |
| 20260905082026 | 86 | 132 | 4.3 | 7.0 | 0.00 | 0.00 | 0.00 | 60 | 1019.9 |
| 20260905081545 | 85 | 24 | 2.6 | 5.2 | 0.00 | 0.00 | 0.00 | 61 | 1020.2 |
| 20260905081017 | 84 | 11 | 4.3 | 7.8 | 0.00 | 0.00 | 0.00 | 63 | 1019.8 |
| 20260905080526 | 84 | 133 | 4.3 | 10.4 | 0.00 | 0.00 | 0.00 | 62 | 1019.8 |